Regional Weather Roundup
Issued by NWS Portland, ME

Home | Current Version | Previous Version | Text Only | Print | Product List | Glossary On
Versions: 1 2 3 4 5 6 7 8 9 10 11 12 13 14 15 16 17 18 19 20 21 22 23 24 25 26 27 28 29 30 31 32 33 34 35 36 37 38 39 40 41 42 43 44 45 46 47 48 49 50
000
ASUS41 KGYX 231210
RWRGYX
WEATHER ROUNDUP FOR MAINE AND NEW HAMPSHIRE
NATIONAL WEATHER SERVICE GRAY ME
800 AM EDT THU MAR 23 2017

MEZ002-005-006-010-012-015-018-020-021-024-026-027-029-231300-
MAINE

CITY           SKY/WX    TMP DP  RH WIND       PRES   REMARKS
PORTLAND       SUNNY     16  -4  41 NW8       30.40R
6HR MIN TEMP:  14; 6HR MAX TEMP:  16;

SANFORD        SUNNY     18  -3  39 W8        30.40R
BAR HARBOR     SUNNY     14  -4  44 NW9       30.29R
WISCASSET      SUNNY     16  -5  39 NW8       30.37R
6HR MIN TEMP:  13; 6HR MAX TEMP:  16;

ROCKLAND       SUNNY     13  -4  46 VRB7      30.35R
FRYEBURG       SUNNY     10  -7  46 CALM      30.36R
6HR MIN TEMP:   2; 6HR MAX TEMP:  15;

LEWISTONAUBURN SUNNY     14  -3  47 NW14      30.37R WCI  -1
AUGUSTA        SUNNY     12  -8  40 NW10      30.34R WCI  -1
6HR MIN TEMP:   9; 6HR MAX TEMP:  13;

WATERVILLE     SUNNY     12  -3  51 CALM      30.31R
BANGOR         SUNNY     11  -6  46 NW18G28   30.30R WCI  -7
6HR MIN TEMP:  10; 6HR MAX TEMP:  11;

GREENVILLE       N/A      4  -6  63 NW15G23   30.17R WCI -14
6HR MIN TEMP:   2; 6HR MAX TEMP:   4;

MILLINOCKET    MOSUNNY    8  -6  52 NW7       30.27R
6HR MIN TEMP:   6; 6HR MAX TEMP:   9;

HOULTON        MOSUNNY    6  -8  52 NW18G25   30.20R WCI -13
6HR MIN TEMP:   4; 6HR MAX TEMP:   8;

PRESQUE ISLE   NOT AVBL
FRENCHVILLE    SUNNY      2 -10  57 NW20G35   30.16R WCI -19
6HR MIN TEMP:   1; 6HR MAX TEMP:   4;

CARIBOU        SUNNY      4  -8  57 NW17G25   30.20R WCI -16
6HR MIN TEMP:   2; 6HR MAX TEMP:   6;

$$

NHZ002-005-008-009-011-012-014-231300-
NEW HAMPSHIRE

CITY           SKY/WX    TMP DP  RH WIND       PRES   REMARKS
PORTSMOUTH     SUNNY     18  -5  36 NW9       30.42R
ROCHESTER      SUNNY     16  -6  37 NW12      30.37R WCI   3
6HR MIN TEMP:  13; 6HR MAX TEMP:  16;

NASHUA         SUNNY     18  -3  39 NW12G20   30.47R WCI   5
MANCHESTER     SUNNY     18  -6  34 NW13G18   30.44R WCI   5
6HR MIN TEMP:  16; 6HR MAX TEMP:  18;

CONCORD        SUNNY     17  -3  41 NW17      30.43R WCI   1
6HR MIN TEMP:  14; 6HR MAX TEMP:  17;

LACONIA        SUNNY     16  -3  43 W10       30.40R WCI   4
PLYMOUTH       FAIR      15  -4  43 W10       30.42R WCI   2
BERLIN         SUNNY     12  -7  42 NW10      30.32R WCI  -1
6HR MIN TEMP:   1; 6HR MAX TEMP:  12;

WHITEFIELD     SUNNY      9  -8  46 W8        30.38R
6HR MIN TEMP:  -1; 6HR MAX TEMP:  10;

JAFFREY        SUNNY     15  -7  37 NW8       30.40R
6HR MIN TEMP:  11; 6HR MAX TEMP:  15;

KEENE          SUNNY     17  -2  43 VRB6      30.47R
LEBANON        SUNNY     10  -1  61 CALM      30.45R
6HR MIN TEMP:   6; 6HR MAX TEMP:  15;

MT WASHINGTON  ICE FOG  -13 -13 100 NW72G79     N/A  VSB 1/4 WCI -54
6HR MIN TEMP: -16; 6HR MAX TEMP: -14;

$$

VTZ005-007-008-231300-
VERMONT

CITY           SKY/WX    TMP DP  RH WIND       PRES   REMARKS
ST JOHNSBURY     N/A      4  -4  69 MISG      30.42R
MONTPELIER     SUNNY      9  -4  55 VRB5      30.44R
BURLINGTON     MOSUNNY    5  -2  72 E3        30.51R
$$

MAZ007-012-024-CTZ003-RIZ002-NYZ038-NYZ072-231300-
SOUTHERN NEW ENGLAND AND NY

CITY           SKY/WX    TMP DP  RH WIND       PRES   REMARKS
BOSTON         MOSUNNY   20  -5  33 NW20G26   30.48R WCI   4
WORCESTER      SUNNY     15  -7  37 NW14G20   30.41R WCI   0
NANTUCKET      SUNNY     22   3  44 NW21G29   30.44R WCI   6
HARTFORD       SUNNY     18  -1  43 NW3       30.52R
ALBANY         SUNNY     16   0  49 NW9       30.56R
NEW YORK CITY  SUNNY     27   7  42 NW12      30.58R WCI  17
$$

ANZ081-ANZ082-ANZ150-NHZ014-MEZ023>029-231300-
COASTAL MARINE OBSERVATIONS

STATION/POSITION TIME  TEMP    WIND        PRES    WAVE
                       AIR SEA DIR/SP/G            HT/PER
                 (UTC) (F)     (DEG/KT/KT) (MB)    (FT/S)
MOUNT DESERT ROC 1200   16                 1025.3R
MATINICUS ROCK   1100   15     320/ 30/ 33 1025.4R
ISLE OF SHOALS   1100   18     310/ 18/ 22 1029.2R
JEFFREYS LEDGE   1106      41                N/A     6/ 6
CASHES LEDGE BUO 1150   22 39              1027.4R   9/ 7
GEORGES BANK BUO 1150   27 39              1023.2R  16/11
$$

.............KEY..............
   WCI - WIND CHILL
   TC  - TEMPERATURE IN CELSIUS
   VSB - VISIBILITY IN MILES
   HX  - HEAT INDEX
   FAIR- INDICATES FEW OR NO CLOUDS BELOW 12,000 FT, WITH NO
         SIGNIFICANT WEATHER AND/OR OBSTRUCTIONS TO VISIBILITY.






USA.gov is the U.S. government's official web portal to all federal, state and local government web resources and services.